{"data":{"norad_id":58242,"epoch":"2026-09-20T01:37:46.547904Z","epoch_age_seconds":180984,"freshness":"STALE","line1":"1 58242U 23171N   26263.06789986 -.00000130  00000+0  48116-5 0  9996","line2":"2 58242  43.0055 267.3526 0001816 279.2538  80.8108 15.27576257159460","mean_motion":15.27576257,"eccentricity":0.0001816,"inclination_deg":43.0055,"raan_deg":267.3526,"arg_perigee_deg":279.2538,"mean_anomaly_deg":80.8108,"bstar":4.8116e-6,"rev_number":15946,"period_min":94.266979694226,"perigee_km":481.81431052068,"apogee_km":484.30629738147,"semimajor_km":6861.1973039511,"source":"CELESTRAK","updated_at":"2026-09-21T09:00:33.838379Z"}}